sat.trackr.live / text

‹ back to catalog

STARLINK-36368

NORAD 67887 · 2026-035J

PAYLOAD ACTIVE UNKNOWN

§ Identity

Operator
Country
US
Launch date
2026-02-21
Launch site
AFWTR
Launch vehicle
Mass (kg)
RCS (m²)

Purposes: comms

External: N2YO · Heavens-Above · Gunter

§ Orbital elements

Epoch: 2026-09-19T01:32:29.943744Z

Period
93.90 min
Inclination
97.2853°
Eccentricity
0.0001958
Mean motion
15.33474581 rev/d
Perigee alt
464.1 km
Apogee alt
466.8 km
Semi-major
6,843.6 km
B*
6.3245e-4
RAAN
193.9426°
Arg perigee
92.5851°
Mean anomaly
267.5616°
Rev number
3,362

§ Raw data

STARLINK-363681 67887U 26035J   26262.06423546  .00020418  00000+0  63245-3 0  99972 67887  97.2853 193.9426 0001958  92.5851 267.5616 15.33474581 33627

JSON: /api/v1/satellites/67887 · /tle

For live sub-satellite position, see the globe view (requires WebGL).

§ Visibility from observer

Set your observer location to see the next 7 days of passes ≥ 10°. The values pass through the URL so the page stays shareable.

No JS? Fill the form by hand. The geolocation button needs JavaScript.